Hourly Data Report for June 29, 2019

BORDEN AWOS
ONTARIO
Current Station Operator: DND

44°16'20.000" N
79°54'42.000" W
222.50 m
611B002
71534
YBN

Download Data

Hourly Data (June 2019)
Hourly Data Report for June 29, 2019
TIME
LST
Temp Definition
°C
Dew Point Definition
°C
Rel Hum Definition
%
Precip. Amount Definition
mm

Wind Dir Definition
10's deg

Wind Spd Definition
km/h
Visibility Definition
km
Stn Press Definition
kPa
Hmdx Definition


Wind Chill Definition


Weather Definition


00:00 19.4 19.4 100     0 2.9 99.19     LegendNANA
01:00 18.1 18.1 100     0 0.2 99.15     LegendNANA
02:00 17.6 17.6 100     0 0.2 99.09     LegendNANA
03:00 15.9 15.9 100     0 0.3 99.06     LegendNANA
04:00 15.5 15.5 100   32 4 0.6 99.07     LegendNANA
05:00 16.9 16.9 100     0 0.3 99.06     LegendNANA
06:00 17.3 17.2 99   1 9 0.3 99.09     LegendNANA
07:00 17.7 17.7 100   34 7 1.4 99.14     LegendNANA
08:00 17.8 17.8 100   36 6 8.0 99.16     LegendNANA
09:00 19.9 19.6 98     0 14.5 99.12     LegendNANA
10:00 22.1 19.2 84   32 6 14.5 99.08 29   LegendNANA
11:00 24.4 19.3 73   33 9 14.5 99.03 31   LegendNANA
12:00 25.1 19.1 69   35 11 14.5 98.99 32   LegendNANA
13:00 25.8 18.3 63   34 13 14.5 98.93 32   LegendNANA
14:00 27.0 19.2 62   35 19 14.5 98.89 34   LegendNANA
15:00 26.4 18.9 63   34 15 14.5 98.82 33   LegendNANA
16:00 25.7 18.6 65   35 17 14.5 98.78 32   LegendNANA
17:00 27.4 16.3 51   30 19 14.5 98.75 32   LegendNANA
18:00 26.1 12.4 43   31 20 14.5 98.73 29   LegendNANA
19:00 24.5 13.8 51   29 9 14.5 98.70 28   LegendNANA
20:00 21.2 13.2 60   26 7 14.5 98.70     LegendNANA
21:00 18.7 12.7 68   27 7 14.5 98.74     LegendNANA
22:00 19.0 12.9 68   27 9 14.5 98.69     LegendNANA
23:00 19.1 12.2 64   29 9 14.5 98.64     LegendNANA

Notes on Data Quality.

Legend

  • E = Estimated
  • M = Missing
  • NA = Not Available*
  • [empty] = Indicates an unobserved value
Date modified: